TimeAKDT,TemperatureF,Dew PointF,Humidity,Sea Level PressureIn,VisibilityMPH,Wind Direction,Wind SpeedMPH,Gust SpeedMPH,PrecipitationIn,Events,Conditions,WindDirDegrees,DateUTC
12:53 AM,15.1,12.0,88,30.33,10.0,Calm,Calm,-,N/A,,Scattered Clouds,0,2011-11-02 08:53:00
1:53 AM,7.0,5.0,92,30.35,10.0,NNE,4.6,-,N/A,,Overcast,20,2011-11-02 09:53:00
2:53 AM,14.0,10.9,88,30.37,10.0,Calm,Calm,-,N/A,,Overcast,0,2011-11-02 10:53:00
3:53 AM,16.0,12.9,88,30.38,10.0,Calm,Calm,-,N/A,,Overcast,0,2011-11-02 11:53:00
4:53 AM,17.1,12.9,84,30.37,10.0,Calm,Calm,-,N/A,,Overcast,0,2011-11-02 12:53:00
5:53 AM,18.0,15.1,88,30.37,10.0,Calm,Calm,-,N/A,,Overcast,0,2011-11-02 13:53:00
6:53 AM,16.0,12.9,88,30.38,10.0,Calm,Calm,-,N/A,,Overcast,0,2011-11-02 14:53:00
7:53 AM,19.0,16.0,88,30.37,10.0,East,4.6,-,0.00,Snow,Light Snow,90,2011-11-02 15:53:00
8:53 AM,21.0,17.1,85,30.36,10.0,ESE,6.9,-,0.00,,Overcast,110,2011-11-02 16:53:00
9:53 AM,23.0,17.1,78,30.36,10.0,Calm,Calm,-,N/A,,Overcast,0,2011-11-02 17:53:00
10:53 AM,23.0,17.1,78,30.36,10.0,Calm,Calm,-,N/A,,Overcast,0,2011-11-02 18:53:00
11:53 AM,28.0,19.9,72,30.36,10.0,SSW,10.4,-,N/A,,Overcast,210,2011-11-02 19:53:00
12:15 PM,28.4,19.4,69,30.36,10.0,SSW,9.2,-,N/A,,Overcast,200,2011-11-02 20:15:00
12:53 PM,28.9,21.0,72,30.35,10.0,South,6.9,-,N/A,,Overcast,190,2011-11-02 20:53:00
12:56 PM,28.4,21.2,74,30.35,10.0,SSW,6.9,-,N/A,,Overcast,200,2011-11-02 20:56:00
1:23 PM,28.4,24.8,86,30.35,4.0,SSW,8.1,-,0.00,Snow,Light Snow,210,2011-11-02 21:23:00
1:51 PM,28.4,24.8,86,30.34,4.0,SSW,3.5,-,0.00,Snow,Light Snow,210,2011-11-02 21:51:00
1:53 PM,28.0,24.1,85,30.35,4.0,Calm,Calm,-,0.00,Snow,Light Snow,0,2011-11-02 21:53:00
2:53 PM,24.1,21.0,88,30.34,10.0,East,8.1,-,0.00,,Mostly Cloudy,80,2011-11-02 22:53:00
3:53 PM,21.9,19.0,89,30.32,10.0,NE,3.5,-,N/A,,Mostly Cloudy,50,2011-11-02 23:53:00
4:53 PM,24.1,19.9,84,30.30,10.0,Calm,Calm,-,N/A,,Overcast,0,2011-11-03 00:53:00
5:53 PM,23.0,19.9,88,30.28,10.0,North,3.5,-,N/A,,Mostly Cloudy,350,2011-11-03 01:53:00
6:53 PM,17.1,15.1,92,30.25,10.0,Calm,Calm,-,N/A,,Mostly Cloudy,0,2011-11-03 02:53:00
7:53 PM,23.0,19.9,88,30.24,10.0,East,5.8,-,N/A,,Overcast,80,2011-11-03 03:53:00
8:53 PM,26.1,21.9,84,30.21,10.0,ENE,8.1,-,N/A,,Overcast,60,2011-11-03 04:53:00
9:53 PM,26.1,21.9,84,30.19,10.0,ENE,10.4,-,N/A,,Overcast,60,2011-11-03 05:53:00
10:53 PM,24.1,17.1,75,30.15,10.0,ENE,13.8,-,N/A,,Overcast,70,2011-11-03 06:53:00
11:53 PM,23.0,18.0,81,30.13,10.0,ENE,15.0,-,N/A,,Mostly Cloudy,70,2011-11-03 07:53:00